Aérodrome :
LOGIN :

S'inscrire | Disclaimer

   EN    FR    IT 

 










Légende :    VFR   VFR Marginal   IFR   IFR Intensif   IFR Très Intensif
Visi : 
Plafond : 
>= 8 km
>= 3000ft
5 à 8 km
1000 à 3000 ft
1500m à 5 km
500 à 1000 ft
800 à 1500m
200 à 500 ft
< 800m
< 200 ft
Symboles :   Orages  Brouillard  Fortes neiges  Fortes précipitations  Vent > 20 kt
SIGMETs :   Divers  Orages  Givrage  Turbulence  Onde Orograph.  Cendres Volcan.






- Altitude de l'aérodrome : 726 ft
- Code IATA : DIJ


LFSD - Dijon

DERNIER METAR :
  • 270330Z AUTO 19007KT 0800 0700 R35/0800D FG VV/// 04/04 Q1018

METARs EXPIRÉS :
  • 270300Z AUTO 19007KT 1000 0800 R35/0800U BCFG VV/// 04/04 Q1018
  • 270230Z AUTO 20007KT 0750 R35/0900N FG VV/// 04/04 Q1018
  • 270200Z AUTO 18007KT 0600 0500 R35/0600N FG VV/// 04/04 Q1018
  • 270130Z AUTO 16005KT 0550 R35/0700N FG VV/// 04/04 Q1018
  • 270100Z AUTO 17004KT 0700 R35/0800U FG VV/// 04/04 Q1019

Prévision TAF périmée.



MET'MAP, la Météo Aéronautique d'un coup d'oeil ! - Copyright ORBIFLY Décembre 2007 - Disclaimer

ORBIFLY MET'MAP TEAM :

Programmation & Développement : Alexandra Zaïnal
Sur une idée originale de : Baudouin d'Aumeries
Assistance à la programmation : Marc-Olivier Méhu
Soutien technique & logistique : Manuel Goepfert

Contact : metmap@orbifly.com




SOURCES & CREDITS :

   NOAA